Location: Joplin, MO
(37.0842°N, 94.5133°W)
Time: 19:38:53
(UTC+02:00)

Transit 2A Rocket - Pass Details

Date: 27 March 2023
Orbit: 584 x 914 km, 66.7° (Epoch: 09 June)

Event Time Altitude Azimuth Distance (km) Brightness Sun altitude
Rises 04:19:02 0° 332° (NNW) 3,552 9.2 -21.0°
Reaches altitude 10° 04:21:36 10° 333° (NNW) 2,598 8.4 -21.5°
Maximum altitude 04:27:42 85° 62° (ENE) 890 5.2 -22.6°
Enters shadow 04:29:38 45° 148° (SSE) 1,168 5.5 -23.0°
Drops below altitude 10° 04:33:26 10° 152° (SSE) 2,447 - -23.7°
Sets 04:35:48 0° 152° (SSE) 3,333 - -24.1°
